HAWK-3C

Last updated on Tue Sep 22 2026 00:03:52 GMT+0000 (Coordinated Universal Time)

1 48948U 21059BX 26263.83530309 .00052924 00000+0 31116-3 0 9996 2 48948 97.6648 116.0074 0002961 343.4720 16.6449 15.78098396292891
UTC large
Height (km)
Speed (km/s)
/
Latitude / Longitude
Inclination (degrees)
Orbital Period (minutes)
Azimuth
Elevation
Range (km)
Doppler Factor

Next 0 passes for location: London (51.5072 / 0.1276)

No passes found over London.
HAWK-3C